Location: Bytom
(50.3475°N, 18.9244°E)
Time: 23:38:56
(UTC+01:00)

ISS - Pass Details

Date: 02 February 2019
Orbit: 403 x 411 km, 51.6° (Epoch: 20 February)

Event Time Altitude Azimuth Distance (km) Brightness Sun altitude
Rises 19:41:19 0° 287° (WNW) 2,342 1.2 -29.2°
Reaches altitude 10° 19:43:27 10° 281° (W) 1,480 -0.1 -29.5°
Enters shadow 19:44:10 15° 277° (W) 1,200 -0.7 -29.6°
